Regional Weather Roundup
Issued by NWS Midland/Odessa, TX

Skip options and go directly to product.
Home | Oldest Version | Next Version | Current Version | All | Text Only | Save Text | Print | Product List | Glossary On

Skip product version selection by date and time.   
461
ASUS44 KMAF 291001
RWRMAF
MIDLAND AREA WEATHER ROUNDUP
NATIONAL WEATHER SERVICE MIDLAND TX
500 AM CDT MON AUG 29 2016

...IN SOUTHWEST TEXAS AND SOUTHEAST NEW MEXICO...

CITY           SKY/WX    TMP DP  RH WIND       PRES   REMARKS
ALPINE         CLOUDY    63  60  89 CALM      30.24S
ANDREWS        NOT AVBL
ARTESIA        CLOUDY    64  64 100 S6        30.17S
BIG SPRING     CLOUDY    73  69  88 E5        30.12S
CARLSBAD       CLOUDY    66  61  84 CALM      30.14F
DRYDEN           N/A     71  68  90 N7        30.04F
FORT STOCKTON  CLOUDY    68  61  78 NE7       30.13R
GUAD PASS      LGT RAIN  61  61 100 NE23      30.24S VSB 1/4
HOBBS          PTCLDY    63  63 100 N6        30.17S
MARFA          CLOUDY   N/A N/A N/A CALM      30.22R
MIDLAND AIRPK  CLOUDY    69  66  88 NW9       30.13R
MIDLAND INTL   LGT RAIN  68  65  90 NW13      30.13R
ODESSA         RAIN      65  63  93 N14       30.14R FOG
PECOS          LGT RAIN  69  61  75 N8G16     30.11S
PRESIDIO       NOT AVBL
SEMINOLE       CLOUDY    64  63  96 CALM      30.16F
SNYDER           N/A     70  67  90 CALM      30.11R
WINK           LGT RAIN  67  62  84 N10       30.11S
$$
...OTHER STATIONS IN TEXAS...

CITY           SKY/WX    TMP DP  RH WIND       PRES   REMARKS
ABILENE        PTCLDY    69  67  93 CALM      30.08S
AMARILLO       CLOUDY    66  64  93 SE9       30.20S
AUSTIN         CLOUDY    74  73  97 NE7       29.98R
BROWNSVILLE    CLEAR     77  75  93 NW3       29.88S
CORPUS CHRISTI PTCLDY    77  74  90 N9        29.89S
DALLAS FTW     CLEAR     75  70  84 E6        30.02R
DEL RIO        MOCLDY    75  73  93 CALM      29.97S
EL PASO        FAIR      70  60  70 CALM      30.12S
HOUSTON INT    CLOUDY    76  73  91 NE10      29.94R
LUBBOCK        CLOUDY    66  62  87 W9        30.16R
SAN ANGELO     PTCLDY    72  68  87 NE3       30.06R
SAN ANTONIO    MOCLDY    73  70  90 N5        29.98S
WACO           PTCLDY    72  71  97 N5        30.01R
WICHITA FALLS  NOT AVBL
$$
...OTHER LOCATIONS IN NEW MEXICO...

CITY           SKY/WX    TMP DP  RH WIND       PRES   REMARKS
ALAMAGORDO     CLEAR     59  55  88 E5        30.15S
ALBUQUERQUE    CLOUDY    64  43  46 N7        30.24S
CANNON AFB     CLOUDY    63  63  99 W7        30.20S
CLOVIS         CLOUDY    63  57  82 SW6       30.20R
HOLLOMAN AFB   MOCLDY    63  55  76 NE6       30.13R
ROSWELL        MOCLDY    65  61  87 SW9       30.17F
RUIDOSO          N/A     52  50  93 S5        30.34F
SANTA FE       CLEAR     55  42  61 N7        30.30S
TRUTH OR CONSE FAIR      62  46  55 NW7       30.18R
TUCUMCARI      MOCLDY    63  60  90 CALM      30.20R
$$

USA.gov is the U.S. government's official web portal to all federal, state and local government web resources and services.